Location: Fours
(44.3167°N, 6.7000°E)
Time: 09:56:34
(UTC+00:00)

YAOGAN 1 - Pass Details

Date: 16 October 2021
Orbit: 618 x 620 km, 97.9° (Epoch: 07 December)

Event Time Altitude Azimuth Distance (km) Brightness Sun altitude
Rises 18:02:12 0° 157° (SSE) 2,882 5.7 -14.2°
Reaches altitude 10° 18:04:23 10° 154° (SSE) 1,981 4.9 -14.6°
Maximum altitude 18:08:38 62° 74° (ENE) 699 2.5 -15.3°
Drops below altitude 10° 18:12:56 10° 354° (N) 1,997 5.3 -16.1°
Sets 18:15:09 0° 351° (N) 2,908 6.2 -16.5°
